Flag for Germany Weather past 2 weeks in Völklingen, Saarland, Germany

Now
75 °F

Clear.


Feels Like: 77 °F
Forecast: 73 / 95 °F
Wind: 6 mph from East

Location: Saarbruecken / Ensheim

Current Time: Jul 4, 2015 at 1:24:38 AM

Latest Report: Jul 4, 2015 at 12:50 AM


Visibility: 10 mi

Pressure: 30.15 "Hg

Humidity: 65%

Dew point: 63 °F

Location of VölklingenLocation

Historic Weather in Völklingen — Graph

°F

Völklingen temperature yesterday

Maximum temperature yesterday: 93 °F (at 2:50 PM)
Minimum temperature yesterday: 68 °F (at 5:20 AM)
Average temperature yesterday: 82 °F

Past Weeks' High & Low Weather Summary

 TemperatureHumidityPressure
High95 °F (Jul 2, 3:20 PM)100% (Jun 21, 9:50 AM)30.24 "Hg (Jun 21, 9:50 AM)
Low45 °F (Jun 19, 5:20 AM)24% (Jul 1, 4:20 PM)29.74 "Hg (Jun 22, 9:50 PM)
Average65 °F63%30.10 "Hg
* Reported Jun 19 12:20 AM — Jul 4 12:20 AM, Völklingen, Weather by CustomWeather, © 2015

Note: Actual official high and low records may vary slightly from our data, if they occured in-between our weather recording intervals... More about our weather records

Advertising

Völklingen weather history for previous 24 hours

 ConditionsComfort  
Time TempWeatherWind HumidityBarometerVisibility
12:20 AM
Sat, Jul 4
77 °FClear.6 mph61%30.15 "Hg10 mi
11:50 PM
Fri, Jul 3
77 °FClear.6 mph61%30.15 "Hg10 mi
11:20 PM77 °FClear.6 mph61%30.15 "Hg10 mi
10:50 PM79 °FClear.6 mph58%30.15 "Hg10 mi
10:20 PM81 °FSunny.5 mph54%30.15 "Hg10 mi
9:50 PM84 °FSunny.3 mph45%30.15 "Hg10 mi
9:20 PM86 °FSunny.6 mph43%30.15 "Hg10 mi
8:50 PM88 °FSunny.5 mph40%30.15 "Hg10 mi
8:20 PM91 °FPassing clouds.5 mph32%30.15 "HgN/A
7:50 PM91 °FPassing clouds.3 mph34%30.15 "HgN/A
7:20 PM93 °FPassing clouds.5 mph30%30.18 "HgN/A
6:50 PM93 °FPassing clouds.3 mph30%30.18 "HgN/A
6:20 PM93 °FScattered clouds.5 mph28%30.15 "HgN/A
5:50 PM93 °FScattered clouds.6 mph28%30.18 "HgN/A
5:20 PM93 °FPassing clouds.5 mph28%30.18 "HgN/A
4:50 PM93 °FPassing clouds.5 mph28%30.18 "HgN/A
4:20 PM93 °FSunny.3 mph30%30.21 "Hg10 mi
3:50 PM93 °FPassing clouds.6 mph30%30.21 "HgN/A
3:20 PM93 °FPassing clouds.6 mph30%30.21 "HgN/A
2:50 PM93 °FSunny.3 mph32%30.21 "Hg10 mi
2:20 PM91 °FSunny.5 mph34%30.21 "Hg10 mi
1:50 PM90 °FSunny.3 mph36%30.24 "Hg10 mi
1:20 PM90 °FSunny.5 mph38%30.24 "Hg10 mi
12:50 PM90 °FSunny.3 mph38%30.24 "Hg10 mi
12:20 PM88 °FPassing clouds.6 mph40%30.24 "HgN/A
11:50 AM88 °FSunny.2 mph49%30.24 "Hg10 mi
11:20 AM86 °FSunny.1 mph49%30.24 "Hg10 mi
10:50 AM84 °FPassing clouds.3 mph51%30.24 "HgN/A
10:20 AM82 °FSunny.3 mph55%30.24 "Hg10 mi
9:50 AM81 °FSunny.2 mph58%30.24 "Hg10 mi
9:20 AM81 °FPassing clouds.3 mph58%30.24 "HgN/A
8:50 AM79 °FPassing clouds.3 mph61%30.24 "HgN/A
8:20 AM77 °FPassing clouds.3 mph65%30.24 "HgN/A
7:50 AM73 °FSunny.1 mph69%30.24 "Hg10 mi
7:20 AM72 °FSunny.3 mph73%30.24 "Hg10 mi
6:50 AM70 °FSunny.2 mph78%30.24 "Hg10 mi
6:20 AM68 °FPassing clouds.3 mph78%30.21 "HgN/A
5:50 AM68 °FClear.6 mph78%30.21 "Hg10 mi
5:20 AM68 °FClear.No wind78%30.21 "Hg10 mi
4:50 AM70 °FClear.3 mph69%30.21 "Hg10 mi
4:20 AM70 °FClear.5 mph73%30.18 "Hg10 mi
3:50 AM72 °FClear.3 mph69%30.18 "Hg10 mi
3:20 AM72 °FClear.3 mph69%30.18 "Hg10 mi
2:50 AM72 °FClear.2 mph69%30.18 "Hg10 mi
2:20 AM73 °FClear.No wind61%30.18 "Hg10 mi
1:50 AM75 °FClear.No wind57%30.18 "Hg10 mi
1:20 AM77 °FClear.No wind57%30.18 "Hg10 mi
Weather by CustomWeather, © 2015

See weather overviewHow to use our weather pages